This demonstration page uses our WeatherBlox Daily Observations layout. Learn more.

Left ArrowRight Arrow

47.50024, -111.30081

Hourly Observations for December 9, 2022

Temp ( °F °C ) Dew Point ( °F °C ) Humidity (%) Winds ( mph kmh ) Pressure ( in mb ) Visibility ( mi km ) Precip ( " mm )
12:53 am 00:53 Clear 29 -1.7 16 -8.9 58 58 S 16 26 29.94 1014 10 16 0.00 0.00
1:53 am 01:53 Clear 28 -2.2 15 -9.4 58 58 SSW 16 26 29.93 1013 10 16 0.00 0.00
2:53 am 02:53 Clear 29 -1.7 16 -8.9 58 58 SSW 20 31 29.91 1013 10 16 0.00 0.00
3:53 am 03:53 Partly Cloudy 29 -1.7 16 -8.9 58 58 SSW 21 33 29.90 1013 10 16 0.00 0.00
4:53 am 04:53 Mostly Clear 29 -1.7 17 -8.3 61 61 SSW 13 20 29.91 1013 10 16 0.00 0.00
5:53 am 05:53 Clear 28 -2.2 17 -8.3 63 63 SSW 14 22 29.90 1013 10 16 0.00 0.00
6:53 am 06:53 Clear 27 -2.8 16 -8.9 63 63 S 14 22 29.91 1013 10 16 0.00 0.00
7:53 am 07:53 Cloudy 27 -2.8 16 -8.9 63 63 SSW 13 20 29.90 1013 10 16 0.00 0.00
8:53 am 08:53 Mostly Cloudy 29 -1.7 17 -8.3 61 61 SSW 14 22 29.88 1012 10 16 0.00 0.00
9:53 am 09:53 Sunny 30 -1.1 18 -7.8 60 60 SW 14 22 29.89 1012 10 16 0.00 0.00
10:53 am 10:53 Sunny 31 -0.6 20 -6.7 63 63 SSW 14 22 29.89 1012 10 16 0.00 0.00
11:53 am 11:53 Sunny 33 0.6 22 -5.6 63 63 SW 20 31 29.87 1012 10 16 0.00 0.00
12:53 pm 12:53 Sunny 33 0.6 22 -5.6 63 63 SW 15 24 29.88 1012 10 16 0.00 0.00
1:53 pm 13:53 Sunny 30 -1.1 21 -6.1 69 69 SW 10 17 29.91 1013 10 16 0.00 0.00
2:53 pm 14:53 Partly Cloudy 33 0.6 22 -5.6 63 63 WSW 18 30 29.90 1013 10 16 0.00 0.00
3:53 pm 15:53 Sunny 32 0 21 -6.1 63 63 WSW 16 26 29.94 1014 10 16 0.00 0.00
4:53 pm 16:53 Clear 27 -2.8 17 -8.3 66 66 SW 15 24 30.00 1016 10 16 0.00 0.00
5:53 pm 17:53 Clear 26 -3.3 16 -8.9 65 65 SW 14 22 30.02 1017 10 16 0.00 0.00
6:53 pm 18:53 Clear 21 -6.1 13 -10.6 70 70 SSW 10 17 30.04 1017 10 16 0.00 0.00
7:53 pm 19:53 Clear 24 -4.4 13 -10.6 62 62 SW 15 24 30.04 1017 10 16 0.00 0.00
8:53 pm 20:53 Clear 24 -4.4 15 -9.4 68 68 SSW 17 28 30.03 1017 10 16 0.00 0.00
9:53 pm 21:53 Clear 22 -5.6 13 -10.6 68 68 SW 17 28 30.04 1017 10 16 0.00 0.00
10:53 pm 22:53 Clear 21 -6.1 13 -10.6 70 70 S 13 20 30.04 1017 10 16 0.00 0.00
11:53 pm 23:53 Clear 24 -4.4 15 -9.4 68 68 SSW 13 20 30.00 1016 10 16 0.00 0.00

Powered by AerisWeather